Location: Newark
(53.2000°N, 6.1000°W)
Time: 21:58:43
(UTC+00:00)

ISS - Pass Details

Date: 04 October 2020
Orbit: 417 x 420 km, 51.6° (Epoch: 29 October)

Event Time Altitude Azimuth Distance (km) Brightness Sun altitude
Rises 19:53:20 0° 276° (W) 2,370 1.6 -18.7°
Reaches altitude 10° 19:56:33 10° 243° (WSW) 1,502 -0.4 -19.1°
Maximum altitude 19:57:49 12° 220° (SW) 1,397 -0.9 -19.3°
Drops below altitude 10° 19:59:06 10° 198° (SSW) 1,499 -1.0 -19.5°
Enters shadow 19:59:21 - 194° (SSW) 1,538 -1.0 -19.5°
